TimePST,TemperatureF,Dew PointF,Humidity,Sea Level PressureIn,VisibilityMPH,Wind Direction,Wind SpeedMPH,Gust SpeedMPH,PrecipitationIn,Events,Conditions,WindDirDegrees,DateUTC
12:09 AM,21.2,21.2,100,29.78,1.5,WNW,8.1,-,0.00,Snow,Light Snow,300,2013-02-17 08:09:00
12:14 AM,21.2,21.2,100,29.78,3.0,Variable,5.8,19.6,0.00,Snow,Light Snow,0,2013-02-17 08:14:00
12:44 AM,21.2,21.2,100,29.78,1.5,Variable,6.9,-,0.00,Snow,Light Snow,0,2013-02-17 08:44:00
12:51 AM,21.2,21.2,100,29.78,1.0,Variable,4.6,-,0.00,Snow,Light Snow,0,2013-02-17 08:51:00
12:53 AM,21.9,21.9,100,29.86,1.2,Variable,4.6,-,0.00,Snow,Light Snow,0,2013-02-17 08:53:00
1:04 AM,21.2,21.2,100,29.78,0.2,Variable,6.9,-,0.00,Fog-Snow,Snow,0,2013-02-17 09:04:00
1:13 AM,21.2,21.2,100,29.78,0.8,WSW,8.1,-,0.00,Snow,Light Snow,250,2013-02-17 09:13:00
1:20 AM,21.2,21.2,100,29.78,1.2,Variable,4.6,-,0.00,Snow,Light Snow,0,2013-02-17 09:20:00
1:31 AM,21.2,21.2,100,29.79,0.2,NW,10.4,18.4,0.00,Fog-Snow,Heavy Snow,310,2013-02-17 09:31:00
1:48 AM,21.2,21.2,100,29.80,0.5,NW,5.8,-,0.00,Fog-Snow,Light Snow,320,2013-02-17 09:48:00
1:53 AM,21.9,21.0,96,29.88,0.8,Variable,5.8,-,0.00,Snow,Light Snow,0,2013-02-17 09:53:00
2:09 AM,21.2,21.2,100,29.79,0.5,Variable,6.9,-,0.00,Fog-Snow,Light Snow,0,2013-02-17 10:09:00
2:14 AM,21.2,19.4,93,29.79,1.0,Variable,5.8,-,0.00,Snow,Light Snow,0,2013-02-17 10:14:00
2:17 AM,21.2,19.4,93,29.79,2.5,Variable,6.9,-,0.00,Snow,Light Snow,0,2013-02-17 10:17:00
2:24 AM,21.2,19.4,93,29.79,8.0,Variable,3.5,-,0.00,Snow,Light Snow,0,2013-02-17 10:24:00
2:39 AM,21.2,21.2,100,29.79,1.5,WNW,4.6,-,0.00,Snow,Light Snow,290,2013-02-17 10:39:00
2:53 AM,21.9,21.0,96,29.89,0.5,Variable,4.6,-,0.00,Fog-Snow,Light Snow,0,2013-02-17 10:53:00
3:03 AM,21.2,21.2,100,29.79,0.2,Variable,5.8,-,0.00,Fog-Snow,Heavy Snow,0,2013-02-17 11:03:00
3:15 AM,21.2,19.4,93,29.79,0.8,NW,6.9,-,0.00,Snow,Light Snow,320,2013-02-17 11:15:00
3:45 AM,21.2,19.4,93,29.79,1.5,West,8.1,-,0.00,Snow,Light Snow,280,2013-02-17 11:45:00
3:49 AM,21.2,19.4,93,29.79,3.0,Variable,6.9,-,0.00,Snow,Light Snow,0,2013-02-17 11:49:00
3:53 AM,21.9,19.9,92,29.90,4.0,Variable,3.5,-,0.00,,Overcast,0,2013-02-17 11:53:00
4:15 AM,21.2,19.4,93,29.80,7.0,WNW,9.2,18.4,N/A,,Overcast,290,2013-02-17 12:15:00
4:19 AM,21.2,19.4,93,29.80,2.0,Variable,6.9,-,0.00,Snow,Light Snow,0,2013-02-17 12:19:00
4:21 AM,21.2,19.4,93,29.80,1.0,Variable,4.6,-,0.00,Snow,Light Snow,0,2013-02-17 12:21:00
4:29 AM,21.2,19.4,93,29.80,0.5,West,8.1,-,0.00,Fog-Snow,Light Snow,280,2013-02-17 12:29:00
5:23 AM,21.2,19.4,93,29.80,1.0,Variable,5.8,-,0.00,Snow,Light Snow,0,2013-02-17 13:23:00
5:33 AM,21.2,19.4,93,29.81,0.8,Variable,3.5,-,0.00,,Mist,0,2013-02-17 13:33:00
5:53 AM,21.9,19.9,92,29.92,0.5,Variable,4.6,-,0.00,Fog-Snow,Light Snow,0,2013-02-17 13:53:00
6:01 AM,21.2,19.4,93,29.81,0.2,West,3.5,-,0.00,Fog-Snow,Light Snow,280,2013-02-17 14:01:00
6:08 AM,21.2,19.4,93,29.81,0.2,Variable,4.6,-,0.00,Fog-Snow,Light Snow,0,2013-02-17 14:08:00
6:13 AM,21.2,19.4,93,29.80,0.5,WSW,5.8,-,0.00,Fog-Snow,Light Snow,250,2013-02-17 14:13:00
6:45 AM,21.2,19.4,93,29.81,0.5,Variable,4.6,-,0.00,Fog-Snow,Light Snow,0,2013-02-17 14:45:00
6:53 AM,21.9,19.0,89,29.93,0.5,Variable,5.8,-,0.00,Fog-Snow,Light Snow,0,2013-02-17 14:53:00
7:14 AM,21.2,19.4,93,29.82,0.5,NW,8.1,-,0.00,Fog-Snow,Light Snow,320,2013-02-17 15:14:00
7:22 AM,21.2,19.4,93,29.82,0.5,NNW,6.9,-,0.00,Fog-Snow,Light Snow,330,2013-02-17 15:22:00
7:35 AM,23.0,19.4,86,29.83,0.2,NW,9.2,-,0.00,Fog-Snow,Light Snow,320,2013-02-17 15:35:00
7:53 AM,23.0,19.9,88,29.95,0.2,Variable,5.8,-,0.00,Fog-Snow,Light Snow,0,2013-02-17 15:53:00
8:53 AM,23.0,19.9,88,29.98,0.2,NW,8.1,-,0.00,Fog-Snow,Light Snow,320,2013-02-17 16:53:00
9:53 AM,24.1,19.9,84,29.99,0.2,NW,8.1,-,0.00,Fog,Light Freezing Fog,320,2013-02-17 17:53:00
10:53 AM,24.1,19.9,84,30.01,0.2,Variable,4.6,-,0.00,Fog-Snow,Light Snow,0,2013-02-17 18:53:00
11:10 AM,24.8,19.4,80,29.88,-9999.0,NW,9.2,-,0.00,Snow,Light Snow,320,2013-02-17 19:10:00
11:25 AM,24.8,19.4,80,29.88,0.2,NW,9.2,-,0.00,Fog-Snow,Light Snow,320,2013-02-17 19:25:00
11:53 AM,25.0,19.9,81,30.01,0.2,Variable,5.8,-,0.00,,Haze,0,2013-02-17 19:53:00
12:10 PM,24.8,19.4,80,29.88,-9999.0,Variable,3.5,-,N/A,,Overcast,0,2013-02-17 20:10:00
12:23 PM,24.8,19.4,80,29.88,0.2,Variable,6.9,-,N/A,,Haze,0,2013-02-17 20:23:00
12:53 PM,25.0,19.9,81,30.01,0.2,Variable,4.6,-,N/A,,Haze,0,2013-02-17 20:53:00
1:53 PM,25.0,19.9,81,30.02,0.2,NNW,8.1,18.4,0.00,Snow,Heavy Snow,330,2013-02-17 21:53:00
2:37 PM,24.8,19.4,80,29.90,0.8,NW,6.9,-,0.00,,Haze,320,2013-02-17 22:37:00
2:44 PM,24.8,19.4,80,29.90,1.0,Variable,5.8,-,0.00,,Haze,0,2013-02-17 22:44:00
2:53 PM,24.1,19.9,84,30.04,0.5,NW,6.9,-,0.00,Fog,Light Freezing Fog,310,2013-02-17 22:53:00
3:04 PM,24.8,19.4,80,29.90,1.5,Variable,5.8,-,N/A,,Overcast,0,2013-02-17 23:04:00
3:06 PM,24.8,19.4,80,29.90,6.0,Variable,5.8,-,N/A,,Overcast,0,2013-02-17 23:06:00
3:14 PM,24.8,19.4,80,29.90,10.0,Variable,4.6,-,N/A,,Overcast,0,2013-02-17 23:14:00
3:38 PM,24.8,19.4,80,29.90,5.0,Variable,4.6,-,0.00,Snow,Light Snow,0,2013-02-17 23:38:00
3:53 PM,24.1,19.0,81,30.04,9.0,Variable,3.5,-,0.00,Snow,Light Snow,0,2013-02-17 23:53:00
3:56 PM,24.8,19.4,80,29.91,9.0,Variable,3.5,-,0.00,Snow,Light Snow,0,2013-02-17 23:56:00
4:09 PM,24.8,19.4,80,29.91,8.0,Variable,4.6,-,0.00,Snow,Light Snow,0,2013-02-18 00:09:00
4:22 PM,23.0,19.4,86,29.91,1.8,Variable,5.8,-,0.00,Snow,Light Snow,0,2013-02-18 00:22:00
4:25 PM,23.0,19.4,86,29.91,1.2,Variable,4.6,-,0.00,Snow,Light Snow,0,2013-02-18 00:25:00
4:43 PM,24.8,19.4,80,29.91,0.8,Calm,Calm,-,0.00,Snow,Light Snow,0,2013-02-18 00:43:00
5:04 PM,24.8,19.4,80,29.91,0.2,NNW,5.8,-,0.00,Fog-Snow,Heavy Snow,330,2013-02-18 01:04:00
5:24 PM,23.0,19.4,86,29.91,0.5,Variable,4.6,-,0.00,Fog-Snow,Snow,0,2013-02-18 01:24:00
5:49 PM,23.0,19.4,86,29.92,1.0,NNW,6.9,-,0.00,Snow,Light Snow,330,2013-02-18 01:49:00
5:53 PM,23.0,19.0,85,30.06,1.0,NNW,6.9,-,0.00,Snow,Light Snow,330,2013-02-18 01:53:00
6:09 PM,23.0,19.4,86,29.92,0.8,Variable,4.6,-,0.00,,Mist,0,2013-02-18 02:09:00
6:18 PM,23.0,19.4,86,29.92,1.5,NNW,5.8,-,0.00,,Overcast,330,2013-02-18 02:18:00
6:22 PM,23.0,19.4,86,29.92,3.0,NNW,4.6,-,0.00,,Overcast,330,2013-02-18 02:22:00
6:35 PM,23.0,19.4,86,29.92,10.0,Variable,5.8,-,0.00,,Overcast,0,2013-02-18 02:35:00
6:51 PM,23.0,19.4,86,29.92,10.0,NW,5.8,-,0.00,,Overcast,320,2013-02-18 02:51:00
6:53 PM,23.0,19.0,85,30.06,8.0,NW,5.8,-,0.00,Snow,Light Snow,310,2013-02-18 02:53:00
7:13 PM,23.0,19.4,86,29.93,0.5,Variable,3.5,-,0.00,Fog-Snow,Snow,0,2013-02-18 03:13:00
7:39 PM,23.0,19.4,86,29.93,1.0,NW,5.8,-,0.00,Snow,Light Snow,320,2013-02-18 03:39:00
7:43 PM,23.0,19.4,86,29.93,2.0,NW,8.1,-,0.00,Snow,Light Snow,320,2013-02-18 03:43:00
7:53 PM,23.0,19.9,88,30.07,1.2,Variable,6.9,-,0.00,Snow,Light Snow,0,2013-02-18 03:53:00
8:04 PM,23.0,19.4,86,29.93,1.5,NW,6.9,-,0.00,Snow,Light Snow,320,2013-02-18 04:04:00
8:07 PM,23.0,19.4,86,29.93,2.0,Variable,6.9,-,0.00,Snow,Light Snow,0,2013-02-18 04:07:00
8:22 PM,24.8,19.4,80,29.94,3.0,NW,5.8,-,0.00,,Overcast,320,2013-02-18 04:22:00
8:33 PM,24.8,19.4,80,29.94,10.0,NW,6.9,-,0.00,,Overcast,320,2013-02-18 04:33:00
9:15 PM,24.8,19.4,80,29.95,9.0,Variable,5.8,-,0.00,,Overcast,0,2013-02-18 05:15:00
9:51 PM,23.0,19.4,86,29.95,10.0,SW,3.5,-,0.00,,Overcast,230,2013-02-18 05:51:00
9:53 PM,23.0,19.0,85,30.08,10.0,Variable,3.5,-,0.00,,Overcast,0,2013-02-18 05:53:00
10:04 PM,23.0,19.4,86,29.95,10.0,Variable,3.5,-,N/A,,Overcast,0,2013-02-18 06:04:00
10:23 PM,23.0,19.4,86,29.95,2.5,Variable,3.5,-,0.00,Snow,Light Snow,0,2013-02-18 06:23:00
10:30 PM,23.0,19.4,86,29.95,8.0,Calm,Calm,-,0.00,Snow,Light Snow,0,2013-02-18 06:30:00
10:40 PM,23.0,19.4,86,29.95,2.0,Calm,Calm,-,0.00,Snow,Light Snow,0,2013-02-18 06:40:00
10:45 PM,23.0,19.4,86,29.95,8.0,NW,3.5,-,0.00,,Overcast,310,2013-02-18 06:45:00
10:51 PM,23.0,19.4,86,29.95,2.0,Calm,Calm,-,0.00,,Overcast,0,2013-02-18 06:51:00
10:52 PM,23.0,19.9,88,30.09,2.0,Calm,Calm,-,0.00,,Overcast,0,2013-02-18 06:52:00
10:56 PM,23.0,19.4,86,29.95,1.8,Calm,Calm,-,N/A,,Overcast,0,2013-02-18 06:56:00
11:02 PM,24.8,19.4,80,29.95,0.8,Calm,Calm,-,N/A,,Overcast,0,2013-02-18 07:02:00
11:10 PM,23.0,19.4,86,29.95,1.5,NNW,4.6,-,0.00,Snow,Light Snow,330,2013-02-18 07:10:00
11:13 PM,23.0,19.4,86,29.95,3.0,Variable,3.5,-,0.00,Snow,Light Snow,0,2013-02-18 07:13:00
11:26 PM,23.0,19.4,86,29.95,6.0,Variable,3.5,-,0.00,,Overcast,0,2013-02-18 07:26:00
11:34 PM,23.0,19.4,86,29.95,1.8,NNW,3.5,-,0.00,,Overcast,330,2013-02-18 07:34:00
11:44 PM,23.0,19.4,86,29.95,3.0,NW,6.9,-,0.00,,Overcast,310,2013-02-18 07:44:00
11:53 PM,23.0,19.9,88,30.08,10.0,NW,4.6,-,0.00,,Overcast,320,2013-02-18 07:53:00